Location: Harwich
(41.7160°N, 69.9939°W)
Time: 16:17:36
(UTC+01:00)

Explorer 7 - Pass Details

Date: 02 February 2023
Orbit: 478 x 657 km, 50.3° (Epoch: 19 March)

Event Time Altitude Azimuth Distance (km) Brightness Sun altitude
Rises 01:28:34 0° 291° (WNW) 2,942 11.6 -28.8°
Maximum altitude 01:34:44 19° 229° (SW) 1,555 9.5 -29.9°
Enters shadow 01:36:20 16° 204° (SSW) 1,690 9.4 -30.2°
